DW4509 Weather Reports


Display with metric or nautical units.
time (UTC)temp
F
wind
direction
speed
MPH
gust
MPH
rain 1hr
in
rain 24hr
in
rain mn
in
humidity
%
barometer
mb
20260901100627 66 248 0.0 5.0 0.00 0.01 0.00 62 1018.8
20260901094520 65 269 0.0 6.0 0.00 0.01 0.00 64 1018.9
20260901092256 64 30 1.0 7.0 0.00 0.01 0.00 63 1019.0
20260901091255 64 268 0.0 5.0 0.00 0.01 0.00 66 1019.1
20260901090235 64 47 0.0 5.0 0.00 0.01 0.00 67 1019.1
20260901085257 64 72 0.0 4.0 0.00 0.01 0.00 66 1019.2
20260901084247 64 101 0.0 2.0 0.00 0.01 0.00 67 1019.0
20260901083244 63 232 0.0 5.0 0.00 0.01 0.00 69 1019.0
20260901082253 62 250 0.0 5.0 0.00 0.01 0.00 71 1019.0
20260901081246 62 274 0.0 4.0 0.00 0.01 0.00 71 1019.0
20260901080224 62 256 0.0 5.0 0.00 0.01 0.00 70 1019.0
20260901075208 62 71 0.0 4.0 0.00 0.01 0.00 69 1019.0
20260901073034 61 252 0.0 4.0 0.00 0.02 0.00 71 1018.8
20260901072033 61 304 0.0 2.0 0.00 0.02 0.00 72 1018.8
20260901071045 61 93 0.0 0.0 0.00 0.02 0.00 73 1018.7
20260901070027 59 300 0.0 0.0 0.00 0.02 0.00 75 1018.8
20260901065024 59 100 0.0 0.0 0.00 0.02 0.00 76 1018.8
20260901064017 57 245 0.0 0.0 0.00 0.02 0.00 79 1018.7
20260901061915 55 26 0.0 0.0 0.00 0.02 0.00 82 1018.8
20260901060918 55 285 0.0 0.0 0.00 0.02 0.00 82 1018.7
20260901055911 55 70 0.0 0.0 0.00 0.02 0.00 82 1018.6
20260901054916 55 98 0.0 0.0 0.00 0.02 0.00 83 1018.5
20260901053939 55 68 0.0 0.0 0.00 0.02 0.00 84 1018.5
20260901052955 56 307 0.0 0.0 0.00 0.02 0.00 84 1018.3
20260901051925 56 268 0.0 0.0 0.00 0.02 0.00 84 1018.2
20260901045829 55 288 0.0 5.0 0.00 0.02 0.00 87 1018.3
20260901044836 55 219 0.0 0.0 0.00 0.02 0.00 87 1018.3
20260901043852 55 188 0.0 0.0 0.00 0.02 0.00 87 1018.3
20260901041813 55 215 0.0 0.0 0.00 0.02 0.00 87 1018.2
20260901035632 54 217 0.0 0.0 0.00 0.03 0.00 87 1018.2
20260901034624 54 220 0.0 0.0 0.00 0.03 0.00 87 1018.2
20260901032445 55 218 0.0 0.0 0.00 0.03 0.00 86 1018.1
20260901031454 55 221 0.0 0.0 0.00 0.03 0.00 86 1018.0
20260901025319 55 218 0.0 0.0 0.00 0.03 0.00 87 1017.9
20260901023132 54 103 0.0 0.0 0.00 0.03 0.00 87 1018.0
20260901022145 54 266 0.0 0.0 0.00 0.03 0.00 87 1018.1
20260901021125 55 268 0.0 0.0 0.00 0.03 0.00 87 1018.1
20260901020116 55 269 0.0 0.0 0.00 0.03 0.00 86 1018.2
20260901015127 55 266 0.0 0.0 0.00 0.03 0.00 86 1018.1
20260901013035 55 40 0.0 0.0 0.00 0.03 0.00 85 1018.1
20260901012043 56 40 0.0 0.0 0.00 0.03 0.00 85 1018.1
20260901004829 56 250 0.0 1.0 0.00 0.03 0.00 86 1017.9
20260901003813 56 246 0.0 0.0 0.00 0.03 0.00 86 1017.8
20260901002836 56 282 0.0 0.0 0.00 0.03 0.00 85 1017.8
20260901001834 56 282 0.0 0.0 0.00 0.03 0.00 85 1017.8
20260901000814 57 267 0.0 0.0 0.00 0.03 0.00 85 1017.8
20260831235750 57 267 0.0 0.0 0.00 0.07 0.00 86 1017.8
20260831234747 57 248 0.0 0.0 0.00 0.10 0.00 86 1017.7
20260831232556 56 110 0.0 0.0 0.00 0.13 0.00 86 1017.6
20260831231609 56 266 0.0 0.0 0.00 0.20 0.00 86 1017.6
20260831230602 56 271 0.0 0.0 0.00 0.33 0.00 86 1017.6
20260831225536 56 271 0.0 0.0 0.00 0.33 0.33 86 1017.6
20260831224507 56 271 0.0 0.0 0.00 0.33 0.33 86 1017.7
20260831223521 56 271 0.0 0.0 0.00 0.33 0.33 85 1017.8
20260831222453 56 271 0.0 0.0 0.00 0.33 0.33 85 1017.7
20260831221431 56 271 0.0 0.0 0.00 0.34 0.33 85 1017.6
20260831220359 56 271 0.0 0.0 0.00 0.37 0.33 85 1017.6
20260831215406 56 271 0.0 0.0 0.00 0.40 0.33 84 1017.6
20260831213259 57 282 0.0 0.0 0.00 0.45 0.33 83 1017.5
20260831212227 57 282 0.0 0.0 0.00 0.47 0.33 82 1017.5
20260831211204 58 282 0.0 0.0 0.00 0.53 0.33 82 1017.4
20260831210207 58 282 0.0 0.0 0.00 0.55 0.33 82 1017.3
20260831205225 58 280 0.0 0.0 0.00 0.56 0.33 83 1017.2
20260831203116 57 113 0.0 0.0 0.00 0.56 0.33 83 1017.2
20260831202047 57 255 0.0 0.0 0.00 0.56 0.33 82 1017.1
20260831201023 58 255 0.0 0.0 0.00 0.56 0.33 81 1017.0
20260831195954 58 77 0.0 0.0 0.00 0.57 0.33 80 1016.9
20260831195014 59 257 0.0 1.0 0.00 0.58 0.33 79 1016.8
20260831194021 59 235 0.0 2.0 0.00 0.58 0.33 78 1016.7
20260831193026 59 267 0.0 6.0 0.00 0.58 0.33 78 1016.5
20260831185654 61 281 0.0 7.0 0.00 0.58 0.33 76 1015.9
20260831184620 61 257 0.0 3.0 0.00 0.58 0.33 76 1015.9
20260831183631 61 259 0.0 5.0 0.00 0.58 0.33 75 1015.7
20260831182603 61 278 0.0 5.0 0.00 0.58 0.33 74 1015.5
20260831180413 62 285 2.0 9.0 0.00 0.58 0.33 71 1015.1
20260831175406 63 278 2.0 11.0 0.00 0.58 0.33 70 1014.9
20260831174400 63 259 3.0 11.0 0.00 0.58 0.33 68 1014.8
20260831173343 64 247 2.0 9.0 0.00 0.58 0.33 67 1014.7
20260831172313 65 280 1.0 9.0 0.00 0.58 0.33 66 1014.5
20260831171300 65 268 0.0 10.0 0.00 0.58 0.33 67 1014.5
20260831170237 65 250 2.0 10.0 0.00 0.58 0.33 66 1014.4
20260831165235 65 155 2.0 9.0 0.00 0.58 0.33 67 1014.1
20260831164230 65 240 2.0 12.0 0.00 0.58 0.33 68 1014.0
20260831163251 66 257 2.0 12.0 0.00 0.58 0.33 68 1013.9
20260831162246 66 38 3.0 14.0 0.00 0.58 0.33 69 1013.8
20260831161230 67 283 2.0 14.0 0.00 0.58 0.33 68 1013.8
20260831155126 69 272 2.0 15.0 0.00 0.58 0.33 65 1013.4
20260831154104 69 309 2.0 15.0 0.00 0.58 0.33 64 1013.3
20260831153040 69 293 3.0 11.0 0.00 0.58 0.33 63 1013.2
20260831152051 70 257 3.0 11.0 0.00 0.58 0.33 62 1013.0
20260831151032 70 278 3.0 13.0 0.00 0.58 0.33 61 1012.7
20260831150034 70 84 3.0 10.0 0.00 0.58 0.33 62 1012.6
20260831142742 70 269 3.0 13.0 0.00 0.58 0.33 65 1012.2
20260831141717 69 198 2.0 14.0 0.00 0.58 0.33 64 1012.0
20260831135531 70 254 3.0 10.0 0.00 0.58 0.33 66 1011.6
20260831134501 70 323 2.0 9.0 0.00 0.58 0.33 69 1011.4
20260831133444 70 232 2.0 9.0 0.00 0.58 0.33 69 1011.3
20260831132412 69 265 2.0 9.0 0.00 0.58 0.33 71 1011.3
20260831130310 68 276 1.0 6.0 0.00 0.58 0.33 75 1010.9
20260831125242 67 243 0.0 6.0 0.05 0.58 0.33 78 1010.8
20260831124302 67 283 1.0 5.0 0.00 0.57 0.33 74 1010.8
20260831122133 67 66 0.0 5.0 0.00 0.56 0.32 76 1010.3
20260831121122 67 236 0.0 10.0 0.00 0.56 0.32 77 1010.2
20260831120055 68 269 1.0 10.0 0.00 0.56 0.32 73 1010.1
20260831115044 69 229 0.0 5.0 0.00 0.56 0.32 70 1009.9
20260831114051 68 260 0.0 5.0 0.00 0.56 0.32 68 1009.7
20260831113032 69 236 1.0 8.0 0.00 0.56 0.32 69 1009.6
20260831112042 68 216 1.0 8.0 0.00 0.56 0.32 69 1009.4
20260831111052 68 261 0.0 6.0 0.00 0.56 0.32 72 1009.3
20260831110058 67 283 0.0 4.0 0.00 0.56 0.32 71 1009.2
20260831105026 68 19 0.0 9.0 0.00 0.56 0.32 71 1009.1
20260831104037 67 231 1.0 9.0 0.00 0.56 0.32 72 1008.9
20260831103052 66 252 1.0 11.0 0.00 0.56 0.32 73 1008.9
20260831102057 66 274 2.0 11.0 0.00 0.56 0.32 73 1008.8